Retour au catalogue

CZ-6A DEB

ActifPO
NORAD 54454·DEBRIS·🇨🇳 China

Lancé Nov 11, 2022 depuis Taiyuan Satellite Launch Center

Loading…

Prochains Passages (prochaines 24 heures)

TLE

FraisSource: Space-Track

Époque: Sep 14, 2026, 05:10 UTC

1 54454U 22151GE  26257.21550789  .00001820  00000-0  15794-2 0  9991
2 54454  98.8339 169.0221 0233410 330.4169  28.3945 13.75695339191793

Suivez CZ-6A DEB en temps réel avec AllMySat

Download on the App Store